Location: Asheville, NC
(35.6000°N, 82.5500°W)
Time: 04:26:04
(UTC-05:00)

NO-84 - Pass Details

Date: 09 January 2018
Orbit: 336 x 568 km, 55.0° (Epoch: 18 January)

Event Time Altitude Azimuth Distance (km) Brightness Sun altitude
Exits shadow 05:11:58 14° 125° (SE) 1,258 ? -29.5°
Drops below altitude 10° 05:12:36 10° 127° (SE) 1,513 ? -29.4°
Sets 05:14:49 0° 131° (SE) 2,424 ? -29.0°
